GFSCGP_250_spd_135.txt.gz
Wind_Speed
91 88 82 86 96 94 99 104 106 104 105 96 96 94 90 87 81 75 70 66 63 63 62 56 54 49 47 44 41 46 49 49 51 50 49 49 49 46 45 45 45 43 43 45
96 90 78 91 95 99 102 103 109 107 105 102 100 96 93 89 84 79 74 69 67 65 64 62 59 57 54 50 49 44 42 43 44 45 46 48 50 51 49 49 47 49 50 52
94 82 94 95 96 97 102 106 109 112 110 107 103 98 95 91 88 83 77 70 69 69 68 67 64 60 59 57 53 49 47 45 45 44 42 43 44 50 51 51 51 53 53 53
102 99 99 88 96 97 101 101 104 114 113 109 107 100 95 91 87 83 76 74 73 74 73 71 67 63 61 61 56 56 54 51 50 46 46 44 43 45 43 47 50 47 45 48
103 107 96 93 86 96 103 104 106 113 115 112 109 105 90 90 86 81 80 79 80 80 79 75 71 67 65 64 62 61 59 58 56 52 53 51 50 50 47 47 48 51 50 50
111 113 110 98 98 90 94 101 102 114 117 111 109 106 93 89 86 83 87 85 84 84 81 78 78 75 70 68 66 65 63 62 59 58 58 57 57 54 52 52 53 54 56 57
109 118 115 115 105 100 91 86 97 106 115 109 112 109 93 87 92 88 89 87 89 86 84 83 81 78 75 72 71 70 68 66 66 64 62 61 62 61 60 60 59 59 59 60
108 117 120 119 119 113 98 96 92 93 113 114 111 108 100 91 93 92 90 89 90 91 89 85 84 83 81 78 75 74 73 71 69 68 67 66 66 65 65 64 63 62 62 63
111 119 121 122 118 114 112 107 97 96 99 116 113 109 103 97 95 94 92 91 91 91 91 90 89 85 85 82 81 80 79 77 75 74 72 71 72 70 70 70 66 65 65 64
103 111 124 124 122 118 112 110 107 103 98 103 110 111 106 102 101 97 97 96 93 93 94 93 93 90 88 87 85 84 82 81 80 78 76 75 74 72 70 71 70 70 70 68
105 106 117 124 120 116 114 113 112 108 102 106 108 108 109 105 104 103 102 100 100 99 98 96 95 94 92 89 88 87 86 83 81 80 79 76 76 75 75 74 74 73 74 74
106 111 112 117 117 112 113 115 115 117 105 101 103 109 102 107 108 108 106 105 105 103 102 102 100 98 95 93 91 89 87 85 84 83 82 80 80 79 77 77 79 80 80 80
111 114 113 115 115 109 111 111 113 115 119 108 112 83 94 106 109 110 112 114 111 107 106 105 104 103 100 99 97 95 93 91 90 88 87 85 84 83 82 82 83 83 84 83
118 118 119 115 110 113 111 109 116 118 122 115 112 96 87 96 105 114 116 115 116 113 111 108 107 105 104 103 102 100 99 98 96 94 93 92 91 90 89 88 87 88 89 88
124 123 122 116 111 118 116 113 114 120 118 122 116 115 91 105 110 107 114 118 119 119 115 112 110 109 110 106 105 103 103 102 101 100 98 96 95 94 94 92 92 91 90 91
124 127 125 122 118 121 118 116 113 112 114 122 116 120 97 113 108 101 100 112 123 123 122 121 120 117 115 112 109 108 106 105 103 102 102 100 100 99 99 98 96 95 94 95
122 128 127 126 123 124 125 112 112 114 115 112 118 115 112 119 117 115 110 108 114 125 125 126 126 125 119 116 113 113 112 109 106 104 104 103 103 103 103 102 101 101 101 101
111 122 127 128 127 129 119 116 115 115 114 114 117 112 106 111 118 122 123 119 117 116 120 122 126 126 126 124 120 118 116 113 111 108 108 109 108 107 106 106 105 105 105 105
100 111 121 126 126 125 122 117 115 116 114 114 114 107 107 111 120 126 131 129 126 124 120 121 122 124 124 124 124 123 121 119 116 116 114 114 113 111 110 110 109 109 109 109
92 102 113 118 123 123 115 119 117 122 118 113 116 114 114 116 118 117 128 131 132 133 133 132 126 127 129 129 127 127 128 127 124 124 123 122 120 117 115 114 113 112 112 113
81 92 103 111 117 116 112 116 121 126 114 120 121 118 114 114 118 116 119 124 127 126 130 134 137 136 130 130 131 126 123 120 126 128 127 128 126 123 122 120 120 120 120 120
76 82 90 99 108 105 109 117 123 123 119 119 118 116 114 113 115 117 117 116 119 125 122 122 124 125 127 127 125 125 124 126 122 121 120 122 125 126 126 126 126 125 124 125
68 76 83 87 92 94 105 117 120 120 116 116 115 117 116 115 114 116 116 116 115 115 117 121 123 121 119 118 119 117 118 121 121 122 119 117 120 122 123 124 124 122 120 120
68 72 74 80 72 84 102 104 109 114 114 115 117 117 116 113 113 113 114 115 115 114 114 116 120 120 117 118 116 115 114 114 116 115 115 118 118 119 118 119 117 115 114 113
71 75 78 79 75 78 90 95 99 107 112 113 116 117 116 115 113 113 114 114 114 114 115 115 115 115 115 116 113 110 113 114 113 115 115 115 115 114 114 113 114 114 112 111
74 77 78 78 77 79 84 91 95 97 104 110 114 116 118 117 115 116 113 114 115 116 115 116 117 115 113 112 110 109 110 114 113 114 114 112 114 115 116 117 115 112 110 109

GFSCGP_250_spd_138.txt.gz
Wind_Speed
122 123 117 110 113 110 104 106 100 97 101 94 88 85 86 96 94 86 82 79 76 73 71 67 65 63 60 58 55 51 49 47 46 48 51 51 53 51 52 49 49 45 46 46
128 126 113 117 115 111 106 108 103 101 102 94 90 87 87 95 95 90 82 81 79 78 73 69 67 65 64 62 59 59 50 45 44 45 45 48 50 47 47 49 47 48 50 51
122 112 117 115 115 110 106 105 101 105 95 93 91 90 90 93 98 95 86 82 81 78 76 75 74 71 68 65 64 61 58 54 54 53 48 46 45 44 43 41 42 41 41 43
112 108 111 112 109 105 99 98 89 89 95 96 86 85 91 93 98 94 86 83 82 79 85 83 79 75 71 68 67 65 63 60 58 56 53 51 48 47 44 42 43 44 42 43
103 98 101 105 102 101 95 91 88 87 80 91 85 88 88 94 97 96 86 87 86 86 86 86 84 78 75 72 69 68 67 65 62 60 59 57 56 54 51 50 49 49 48 49
90 94 99 93 96 93 90 92 90 97 88 99 89 91 87 93 97 99 97 90 88 89 88 87 85 83 78 76 73 70 69 68 68 65 63 63 62 60 58 57 55 56 55 53
94 91 92 91 92 92 95 101 90 97 91 98 91 90 86 91 101 106 102 94 91 92 92 88 85 84 82 80 77 74 74 72 72 70 68 67 66 66 64 62 61 60 59 59
89 92 89 86 87 85 93 104 102 101 96 93 100 85 85 93 103 107 106 99 93 91 91 90 89 87 85 83 82 78 77 77 73 72 71 71 71 69 68 68 66 64 63 63
85 96 91 89 87 88 98 106 107 106 106 103 93 81 84 89 100 106 106 103 93 93 92 94 93 91 89 87 86 85 82 81 79 76 75 73 73 71 71 69 67 66 67 66
98 91 86 87 87 92 99 102 103 107 100 97 92 86 81 83 94 101 106 103 99 98 96 97 96 94 93 91 90 87 85 85 84 82 80 79 77 75 74 73 71 71 68 67
96 93 88 87 88 93 99 106 111 112 107 102 93 81 81 78 84 98 107 108 105 102 98 100 100 99 98 96 94 91 89 89 87 86 85 82 80 79 78 76 75 74 75 74
89 93 93 92 94 97 99 109 116 122 121 111 105 95 90 85 82 90 104 113 108 106 101 101 103 104 103 101 98 96 95 93 91 89 88 86 85 83 81 79 79 78 77 77
85 90 79 81 83 85 100 110 115 119 124 125 113 96 99 95 86 80 90 103 112 110 111 108 105 105 106 104 103 100 98 97 96 94 93 92 90 87 86 85 83 84 82 81
90 98 94 86 86 87 92 105 113 118 122 124 123 107 107 105 98 91 91 92 98 106 114 114 115 111 108 108 106 103 101 100 99 99 97 96 95 94 91 90 89 90 89 87
92 100 105 101 96 95 87 97 106 120 119 125 124 118 112 113 105 99 95 91 98 101 105 120 120 117 116 114 111 108 108 107 103 102 101 101 99 99 98 96 95 94 94 94
93 96 103 110 116 114 114 114 113 106 117 124 119 123 106 118 116 107 100 102 101 108 107 111 114 121 124 123 119 114 111 108 107 108 108 106 104 103 103 102 101 100 100 100
92 92 92 100 116 122 124 114 118 118 113 114 116 111 107 109 115 120 116 109 106 108 105 109 114 115 119 125 128 123 120 115 111 111 110 109 109 109 107 105 105 104 103 102
88 90 90 92 103 116 113 116 117 120 118 118 116 112 108 104 106 117 125 125 119 114 111 112 116 123 118 118 121 127 128 125 121 117 117 116 115 112 110 108 108 108 108 107
84 87 88 89 91 97 99 111 119 122 119 119 118 113 111 111 108 113 113 120 125 125 122 117 117 117 119 120 120 121 124 129 130 127 124 123 120 117 116 114 114 114 112 112
79 83 86 88 90 89 86 108 118 126 124 124 125 120 116 114 113 111 115 115 116 124 128 126 122 122 124 126 126 121 120 116 119 130 132 129 128 126 124 123 121 119 118 117
76 81 84 88 88 83 88 102 112 121 122 125 126 124 120 118 119 118 117 116 117 119 123 128 130 131 131 131 131 128 127 124 121 120 120 121 121 124 130 132 129 129 128 126
71 73 76 81 82 83 85 92 102 110 117 122 126 128 127 126 125 125 124 121 120 119 123 123 124 127 133 139 139 136 136 137 133 129 126 125 124 122 123 122 121 125 125 125
61 62 64 66 73 73 75 80 86 95 101 107 116 123 128 129 129 128 127 125 123 120 118 122 125 126 127 129 133 130 129 131 133 134 133 134 132 130 128 128 127 128 123 122
56 58 58 63 71 71 71 75 80 84 89 95 102 110 114 118 122 125 127 127 125 123 123 120 119 120 123 127 126 126 124 125 125 123 122 123 122 122 122 120 117 116 118 117
55 56 57 59 64 68 71 74 77 80 84 88 93 99 105 111 116 119 121 123 123 121 120 121 119 118 119 121 121 121 123 123 120 120 118 115 114 114 113 112 112 111 111 111
59 61 61 60 65 65 68 72 75 79 80 83 88 93 99 103 106 110 113 115 116 117 117 116 115 115 115 117 119 119 119 118 116 115 114 114 113 112 111 109 107 107 106 106

GFSCGP_250_spd_141.txt.gz
Wind_Speed
107 109 102 98 103 106 105 105 100 98 101 97 94 86 84 87 87 82 76 73 75 74 83 83 79 76 73 71 69 63 59 57 51 49 49 49 48 48 51 51 51 51 53 52
114 110 102 109 109 109 109 106 103 101 103 104 97 89 84 86 90 88 79 76 76 77 82 86 83 77 76 74 73 70 65 58 55 53 51 48 50 49 46 47 48 51 50 48
118 110 116 115 113 114 111 109 109 107 107 108 105 90 89 89 88 94 84 83 79 80 83 90 88 81 81 77 74 73 69 67 63 60 56 53 49 47 47 45 45 44 45 45
125 117 116 116 114 114 115 111 116 116 113 114 112 96 93 95 93 96 88 84 81 85 88 92 96 88 80 78 78 72 71 70 69 65 62 61 58 56 54 50 48 47 47 46
123 121 122 123 117 123 121 121 123 120 116 114 111 111 93 97 99 99 93 84 84 88 90 92 97 92 84 79 77 76 72 71 71 68 66 65 63 62 58 57 55 53 53 53
126 127 131 127 127 125 126 124 124 123 121 117 107 108 93 97 101 99 96 88 83 88 90 93 96 94 88 83 80 79 76 74 73 71 69 67 66 65 63 61 60 59 58 57
128 128 131 131 129 127 123 120 117 113 114 103 101 102 85 96 96 95 88 85 83 88 91 91 95 97 91 87 84 82 80 78 78 76 73 72 71 69 66 65 63 63 61 60
118 115 117 116 108 100 94 92 95 94 97 92 94 92 76 85 92 94 86 81 88 90 89 92 96 99 96 91 88 86 84 83 81 80 77 76 75 73 72 71 68 66 65 63
90 89 89 88 87 88 86 87 84 88 87 86 84 76 77 81 89 90 90 83 87 93 87 94 97 101 102 96 92 89 87 86 85 84 82 79 80 79 77 76 73 71 71 70
84 84 82 84 81 82 85 82 84 86 84 81 74 72 73 86 89 87 85 88 88 88 90 91 99 101 103 101 96 93 91 90 88 88 87 85 83 84 82 81 78 76 76 75
82 83 82 78 77 78 81 86 83 82 86 81 76 72 80 91 91 97 86 77 86 93 85 89 98 101 104 104 101 98 96 93 93 93 92 91 89 88 87 85 84 82 81 80
82 80 78 76 76 76 78 77 80 83 84 88 79 79 83 96 99 98 94 88 82 84 88 90 94 100 101 106 106 103 101 99 98 96 95 95 94 92 90 90 90 88 86 86
81 82 79 77 73 79 77 76 64 72 75 78 81 82 84 103 102 99 96 93 95 90 86 94 93 93 100 105 109 109 106 104 101 99 98 98 96 95 94 93 93 92 91 91
84 81 81 79 77 81 67 49 52 57 76 81 75 84 88 99 111 114 105 97 99 100 96 95 94 92 94 102 110 111 110 110 107 104 102 103 102 100 99 99 97 97 97 95
88 87 86 82 82 86 79 53 54 46 63 69 73 83 91 99 107 110 110 103 102 107 102 99 96 93 93 95 104 112 112 112 109 110 108 107 107 105 104 103 102 102 100 98
81 81 84 84 85 89 93 95 85 83 88 89 89 91 91 98 106 107 111 114 105 103 105 101 104 99 99 94 91 107 115 113 111 113 111 108 108 109 108 108 109 107 104 103
77 77 83 84 86 92 99 92 93 100 96 94 96 91 99 101 102 103 107 112 114 113 111 107 107 109 103 101 101 99 102 118 117 115 115 114 115 113 113 111 108 106 104 105
71 72 79 83 86 90 80 91 103 101 98 102 102 98 104 101 94 89 99 111 123 126 123 115 111 114 114 109 107 105 106 106 105 107 118 118 119 119 121 118 116 114 115 113
63 69 71 78 81 83 82 88 93 108 108 105 101 91 93 99 104 97 94 97 103 115 123 126 126 120 122 121 114 111 112 113 112 108 104 111 116 116 121 124 125 124 123 120
59 68 69 69 75 80 82 91 93 98 104 106 106 107 107 108 109 108 104 98 99 99 106 116 122 126 131 128 125 123 117 117 116 116 117 112 111 114 118 118 113 117 127 129
55 58 64 70 72 75 79 88 95 96 96 101 100 106 109 112 115 118 119 112 109 109 104 107 110 115 123 130 136 136 132 125 124 124 125 125 124 122 123 123 124 116 112 112
57 58 58 62 67 75 80 87 91 94 97 100 99 98 97 101 107 113 118 121 122 121 122 116 110 111 112 118 125 130 133 134 130 127 129 131 132 133 134 129 122 122 121 119
52 54 55 56 60 66 72 79 83 87 90 93 96 97 98 100 103 105 110 120 130 130 130 127 123 120 118 116 116 118 124 126 128 130 130 132 133 133 135 136 131 129 129 127
50 55 57 59 59 62 66 72 78 80 83 88 94 98 101 104 106 109 113 118 122 127 131 132 131 129 125 126 124 120 120 123 124 126 125 125 126 128 130 134 137 137 136 134
53 52 56 59 61 62 62 65 69 73 76 81 84 88 91 94 97 100 103 108 114 118 122 124 124 123 123 123 122 123 121 120 120 121 123 123 124 126 126 126 126 126 124 124
58 59 61 62 63 61 61 60 63 65 66 67 70 74 78 82 85 90 95 100 104 107 110 113 113 110 109 111 114 116 117 117 116 116 119 120 121 121 123 125 126 127 126 127

GFSCGP_250_spd_147.txt.gz
Wind_Speed
103 101 94 99 99 100 98 96 94 94 95 95 93 87 86 85 83 83 82 83 84 82 83 84 83 85 85 84 79 77 78 79 73 71 71 71 70 72 72 67 65 64 63 61
106 100 103 104 103 103 101 98 97 100 101 101 98 91 89 88 85 86 86 86 88 90 89 89 89 89 87 89 88 81 77 78 77 74 73 74 73 74 77 75 72 66 64 63
107 99 103 105 104 102 100 99 100 104 104 104 103 93 89 88 91 94 93 93 94 92 94 97 95 92 91 90 88 86 80 75 77 78 78 76 75 77 79 80 79 74 70 67
115 109 107 108 104 104 104 102 105 108 108 107 108 101 93 90 92 96 98 101 99 99 99 97 99 99 96 93 92 87 85 82 78 80 79 81 79 79 81 83 78 79 76 73
114 113 114 113 103 111 105 109 110 112 113 116 106 110 93 94 95 97 104 107 104 104 104 104 104 105 101 96 91 89 85 85 85 83 81 81 82 82 83 83 82 81 79 76
121 118 118 113 110 114 111 111 113 115 118 121 103 118 105 96 100 104 109 107 109 110 110 109 105 105 103 99 93 90 90 90 88 87 84 82 84 86 84 85 87 85 82 80
120 120 117 114 111 113 114 113 117 120 121 120 113 125 116 103 109 109 111 109 110 110 112 110 109 108 107 106 102 96 94 92 90 92 90 85 86 89 89 87 90 90 87 85
125 121 120 118 120 120 121 121 124 124 124 124 121 125 114 113 110 112 114 112 114 113 115 115 115 111 107 105 104 101 98 97 94 93 95 92 89 89 90 89 91 93 91 89
125 124 120 121 123 125 121 123 120 126 127 128 128 125 119 115 116 116 118 119 118 118 116 114 112 110 113 112 108 104 102 99 98 94 95 95 91 92 92 91 92 96 96 95
129 128 125 126 127 123 123 121 125 126 129 131 132 128 120 119 120 120 122 124 123 122 118 115 114 114 117 114 108 103 98 98 96 92 93 93 93 91 92 93 95 98 100 99
134 134 133 133 131 128 129 127 127 129 133 134 136 130 128 124 126 126 126 127 127 124 121 121 120 121 120 110 101 96 93 94 94 91 91 92 89 92 93 96 97 100 102 103
137 140 139 135 134 135 133 129 130 134 139 137 139 137 133 133 133 134 134 136 132 130 128 128 123 120 109 100 95 93 90 92 92 90 85 86 86 87 90 91 95 100 104 103
144 145 144 143 140 136 137 134 136 139 143 138 142 137 138 142 140 136 131 129 134 129 124 116 107 99 93 90 89 85 85 87 87 85 84 84 83 84 88 87 92 99 106 105
149 148 145 142 141 142 141 140 143 144 144 141 142 139 138 137 133 125 112 112 114 115 108 101 95 87 85 86 87 85 84 87 90 92 92 85 86 83 81 82 87 92 102 107
138 139 141 139 136 134 133 137 139 138 131 126 120 121 120 114 108 99 96 92 93 94 93 90 87 83 83 85 85 85 85 88 91 93 86 80 86 88 86 86 86 89 95 102
101 100 97 100 102 103 103 103 105 105 103 101 101 101 96 91 88 89 89 88 90 88 90 88 85 80 79 79 80 86 86 87 92 98 95 95 93 93 87 85 88 88 89 93
83 82 84 84 82 82 85 78 84 87 89 93 90 83 85 79 76 78 85 83 84 88 89 89 87 89 82 79 84 86 87 91 94 97 102 107 104 97 94 95 94 91 89 90
88 83 81 82 80 77 68 75 81 84 85 85 84 82 82 81 81 82 82 80 79 79 86 84 83 88 95 92 82 80 87 93 95 96 99 103 110 114 111 104 105 103 101 99
77 76 77 77 74 73 70 75 82 85 85 85 84 84 83 84 85 84 83 86 87 86 89 88 83 87 96 98 95 87 78 86 89 96 100 100 103 108 116 115 113 111 109 109
74 75 77 73 75 74 74 75 79 83 80 81 85 87 89 90 89 92 91 92 92 94 97 92 85 91 101 104 102 98 89 90 93 90 94 94 92 97 103 116 125 122 122 117
73 78 75 73 74 73 77 79 81 83 80 88 86 88 90 91 91 90 90 93 95 98 99 98 99 103 105 108 104 104 105 103 106 109 103 101 99 95 97 103 105 113 125 131
78 78 73 70 68 63 68 74 75 79 84 87 90 91 93 91 91 92 93 97 103 103 104 104 106 105 109 111 111 109 110 112 117 113 109 104 104 105 108 108 109 111 114 118
78 76 72 72 67 66 71 74 74 71 69 68 69 70 71 75 81 86 88 94 101 110 109 110 112 115 119 118 118 118 120 121 122 123 119 116 112 113 111 114 115 115 120 122
77 78 76 73 69 70 67 60 60 58 60 62 63 66 68 70 73 76 80 88 97 102 111 119 122 123 124 125 125 127 128 130 132 134 134 130 125 119 119 119 119 113 107 107
78 80 76 72 66 57 55 55 56 58 57 55 59 62 63 66 69 72 76 81 84 89 96 105 113 116 121 127 132 135 136 134 131 129 127 125 123 120 117 112 109 106 106 109
74 68 66 60 60 57 54 53 54 56 57 57 58 61 65 69 71 75 77 77 79 83 86 90 95 99 105 113 119 122 124 125 127 127 123 118 110 105 102 101 105 105 104 106